[[{"header":{"parameterUnit":"m.s-1","parameterCategory":1,"la1":30.2991,"la2":30.254,"lo1":-89.0895,"lo2":-89.0444,"dy":0.0017,"dx":0.0017,"nx":28,"ny":28,"refTime":"2023-08-30T21:00:00:Z","depth":0,"parameterNumber":2,"parameterNumberName":"U-component_of_WINDS"},"data":[0,0,0,0,0,0,0,0,0,0,0,0,0,0,0,0,0,0,0,0,0,0,0,0,0,0,0,0,0,0,0,0,0,0,0,0,0,0,0,0,0,0,0,0,0,0,0,0,0,0,0,0,0,0,0,0,0,0,0.7993,0.7994,0,0.8097,0.8098,0.8099,0.815,0.815,0.815,0.815,0.8256,0.8259,0.8262,0,0,0,0,0,0,0,0,0,0,0,0,0,0.7837,0.784,0.7993,0.7994,0.7995,0.8096,0.8098,0.8099,0.815,0.815,0.815,0.815,0.8255,0.8259,0.8262,0,0,0,0,0,0,0,0,0,0,0,0,0,0.7919,0.7841,0.7993,0.8033,0.8038,0.8096,0.8098,0.81,0.815,0.815,0.815,0.815,0.8254,0.8258,0.8262,0.8289,0,0,0.8275,0.8277,0,0,0,0,0,0,0,0,0.7914,0.7925,0.8026,0.803,0.8036,0.811,0.8082,0.8163,0.815,0.8107,0.815,0.815,0.8208,0.8216,0.8235,0.8294,0.8299,0.8276,0.8278,0.828,0.8281,0,0,0,0,0,0,0,0.7909,0.7921,0.8034,0.8027,0.8033,0.8045,0.8057,0.8098,0.8156,0.8111,0.8115,0.8126,0.821,0.8231,0.8238,0.83,0.8276,0.828,0.8282,0.8284,0.8384,0.8384,0,0,0,0,0,0,0.7897,0.7916,0.8031,0.8037,0.7974,0.8048,0.8061,0.8086,0.8156,0.8167,0.8126,0.8128,0.8224,0.8233,0.8242,0.8277,0.828,0.8284,0.8287,0.8384,0.8384,0.8384,0,0,0,0,0,0,0.7893,0.7906,0.8026,0.7977,0.7994,0.8051,0.8079,0.8088,0.8109,0.8168,0.8178,0.8137,0.8224,0.8236,0.8277,0.8281,0.8286,0.829,0.8384,0.8384,0.8384,0.8347,0,0,0,0,0,0,0.7888,0.7905,0.7916,0.7977,0.7996,0.806,0.8079,0.809,0.8116,0.812,0.818,0.819,0.8225,0.827,0.8281,0.8287,0.8293,0.8384,0.8384,0.8384,0.8348,0.8346,0.8344,0,0,0,0,0,0.7883,0.7902,0.7916,0.793,0.8011,0.806,0.807,0.811,0.8116,0.8128,0.8165,0.8188,0.8279,0.8274,0.8286,0.8294,0.8384,0.8384,0.8384,0.8349,0.8346,0.8344,0,0,0,0,0,0,0.784,0.7911,0.7928,0.7967,0.8007,0.8068,0.8084,0.8106,0.8145,0.8147,0.8195,0.8208,0.8244,0.8273,0.8266,0.8322,0.8333,0.8336,0.8302,0.83,0.8298,0.829,0.8297,0,0,0,0,0,0.7835,0.7869,0.7929,0.7958,0.7977,0.8027,0.8049,0.8076,0.8119,0.8137,0.8177,0.8218,0.8255,0.8279,0.8317,0.8352,0.8365,0.8363,0.8361,0.8359,0.8361,0.838,0.838,0.8385,0.8385,0.8385,0,0,0.7826,0.7868,0.7887,0.795,0.7984,0.8018,0.8041,0.8075,0.81,0.8142,0.8183,0.8213,0.8262,0.8299,0.8318,0.8325,0.8363,0.836,0.8358,0.8361,0.8381,0.838,0.838,0.8385,0.8385,0.8385,0,0,0.7825,0.7861,0.7889,0.7922,0.7973,0.8006,0.8012,0.807,0.8092,0.8133,0.8164,0.8194,0.8258,0.8291,0.8317,0.8326,0.8349,0.8337,0.8326,0.8345,0.8344,0.8344,0.8347,0.8347,0.8339,0.8339,0.8339,0,0.7807,0.7859,0.79,0.7933,0.7959,0.7997,0.8025,0.8055,0.8116,0.8133,0.814,0.822,0.8256,0.83,0.8302,0.8322,0.833,0.8331,0.8341,0.8341,0.8342,0.8345,0.8346,0.8337,0.8337,0.8337,0.8337,0,0.7834,0.7869,0.7885,0.7942,0.797,0.8,0.8045,0.8068,0.8092,0.8123,0.8164,0.8208,0.8254,0.8267,0.8291,0.8315,0.8317,0.8332,0.8344,0.8339,0.8342,0.8344,0.8334,0.8335,0.8335,0.8336,0,0,0.7811,0.7889,0.7894,0.792,0.7978,0.8005,0.8036,0.8081,0.81,0.814,0.8167,0.8219,0.8232,0.826,0.8288,0.8304,0.8307,0.8317,0.8318,0.8313,0.8335,0.8324,0.8324,0.8322,0.8323,0.8323,0.8331,0,0.7819,0.7876,0.7913,0.7956,0.7988,0.8023,0.805,0.8088,0.8118,0.8149,0.8182,0.8218,0.8233,0.825,0.8267,0.8303,0.8312,0.8303,0.8347,0.8348,0.8334,0.8327,0.8315,0.832,0.8332,0.8333,0.8333,0,0.7836,0.7874,0.7919,0.7972,0.7987,0.801,0.8054,0.8083,0.8126,0.8147,0.8177,0.8205,0.8238,0.8246,0.8292,0.8285,0.8305,0.8325,0.8326,0.8332,0.834,0.8332,0.8323,0.8324,0.8336,0.8336,0.8335,0,0.7814,0.7877,0.7912,0.7932,0.7995,0.801,0.8037,0.808,0.8104,0.8142,0.8158,0.8199,0.8221,0.8252,0.829,0.8293,0.8332,0.8343,0.8349,0.8348,0.8356,0.8355,0.835,0.8369,0.8369,0.8369,0.8369,0,0.7819,0.7845,0.7902,0.7924,0.7954,0.7995,0.8023,0.8053,0.8091,0.8118,0.8151,0.8176,0.8224,0.8255,0.8284,0.8317,0.8327,0.8344,0.8352,0.8341,0.8339,0.8355,0.8356,0.8369,0.8369,0.8369,0.8369,0,0.78,0.784,0.788,0.7935,0.7949,0.7969,0.8016,0.8037,0.8068,0.8102,0.8112,0.8161,0.8198,0.8238,0.829,0.8309,0.834,0.8351,0.8326,0.833,0.8333,0.8332,0.8339,0.8341,0.8358,0.8357,0.8357,0,0.7801,0.7821,0.7878,0.7899,0.7924,0.7957,0.7981,0.8022,0.8046,0.8095,0.8111,0.815,0.8185,0.8242,0.8282,0.8321,0.8333,0.8332,0.8339,0.8327,0.8332,0.833,0.8332,0.833,0.833,0.8329,0.8329,0,0.7797,0.7815,0.7849,0.7889,0.7917,0.7951,0.7986,0.8,0.8048,0.8073,0.8111,0.8137,0.8189,0.8227,0.8271,0.8298,0.8321,0.8326,0.833,0.8319,0.8303,0.8311,0.832,0.8326,0.8327,0.8327,0.8327,0.8327,0.7788,0.7808,0.785,0.7886,0.7916,0.7948,0.797,0.8003,0.8036,0.808,0.8102,0.814,0.8181,0.8241,0.8267,0.8297,0.8304,0.8309,0.8311,0.8311,0.8308,0.8298,0.8305,0.8305,0.8305,0.8306,0.8306,0,0.7786,0.7814,0.7847,0.7894,0.7922,0.7941,0.798,0.8002,0.8035,0.8071,0.8103,0.8146,0.8183,0.8224,0.8264,0.8279,0.8291,0.8288,0.8288,0.8293,0.83,0.8292,0.8278,0.8278,0.8278,0.8278,0.8278,0.8278,0.7788,0.7822,0.7844,0.7892,0.7921,0.7958,0.7978,0.8007,0.8035,0.8082,0.8112,0.8139,0.8177,0.8219,0.8253,0.8264,0.8277,0.8271,0.8285,0.8291,0.8293,0.8295,0.8289,0.8274,0.8274,0.8277,0.8277,0.8277]},{"header":{"parameterUnit":"m.s-1","parameterCategory":1,"la1":30.2991,"la2":30.254,"lo1":-89.0895,"lo2":-89.0444,"dy":0.0017,"dx":0.0017,"nx":28,"ny":28,"refTime":"2023-08-30T21:00:00:Z","depth":0,"parameterNumber":3,"parameterNumberName":"V-component_of_WINDS"},"data":[0,0,0,0,0,0,0,0,0,0,0,0,0,0,0,0,0,0,0,0,0,0,0,0,0,0,0,0,0,0,0,0,0,0,0,0,0,0,0,0,0,0,0,0,0,0,0,0,0,0,0,0,0,0,0,0,0,0,1.9427,1.9427,0,1.9387,1.9386,1.9386,1.9344,1.9343,1.9343,1.9342,1.9301,1.9301,1.93,0,0,0,0,0,0,0,0,0,0,0,0,0,1.9467,1.9467,1.9427,1.9426,1.9426,1.9387,1.9386,1.9386,1.9344,1.9343,1.9343,1.9342,1.9302,1.9301,1.93,0,0,0,0,0,0,0,0,0,0,0,0,0,1.9441,1.9466,1.9427,1.94,1.9398,1.9387,1.9386,1.9386,1.9344,1.9343,1.9342,1.9342,1.9302,1.9301,1.93,1.9313,0,0,1.9298,1.9297,0,0,0,0,0,0,0,0,1.9442,1.9439,1.9405,1.9402,1.9399,1.9369,1.9385,1.9361,1.9344,1.9365,1.9342,1.9341,1.9325,1.9322,1.9316,1.9311,1.9309,1.9298,1.9297,1.9297,1.9297,0,0,0,0,0,0,0,1.9444,1.9441,1.9411,1.9404,1.9401,1.939,1.9386,1.9381,1.935,1.9363,1.936,1.9355,1.9323,1.9317,1.9315,1.9308,1.9298,1.9297,1.9296,1.9296,1.9308,1.9309,0,0,0,0,0,0,1.945,1.9442,1.9412,1.941,1.9419,1.939,1.9385,1.938,1.935,1.9345,1.9356,1.9354,1.9319,1.9316,1.9314,1.9324,1.9297,1.9296,1.9296,1.9308,1.9309,1.9309,0,0,0,0,0,0,1.9451,1.9448,1.9414,1.9425,1.942,1.9391,1.9385,1.938,1.9374,1.9345,1.9339,1.9356,1.9318,1.9315,1.9313,1.9322,1.9296,1.9295,1.9307,1.9308,1.9309,1.9346,0,0,0,0,0,0,1.9452,1.9448,1.9453,1.9426,1.942,1.9414,1.9386,1.9379,1.9372,1.9369,1.9343,1.9338,1.9317,1.9314,1.9312,1.932,1.9294,1.9306,1.9307,1.9309,1.9344,1.9349,1.9353,0,0,0,0,0,1.9454,1.9466,1.9453,1.945,1.9425,1.9415,1.9411,1.9387,1.9373,1.9377,1.9359,1.9339,1.9322,1.9314,1.9311,1.932,1.9305,1.9307,1.9308,1.9342,1.9348,1.9352,0,0,0,0,0,0,1.9495,1.9462,1.9448,1.9451,1.9436,1.9408,1.9412,1.9394,1.9382,1.9379,1.935,1.9345,1.9345,1.9333,1.9325,1.9329,1.931,1.9312,1.9337,1.9342,1.9346,1.9348,1.9294,0,0,0,0,0,1.9505,1.9499,1.947,1.9476,1.9469,1.9442,1.9437,1.9419,1.9402,1.9396,1.9377,1.9362,1.9352,1.9347,1.9337,1.9343,1.9335,1.9347,1.9351,1.9355,1.9356,1.9355,1.936,1.9315,1.9315,1.9315,0,0,1.9524,1.9505,1.9503,1.9484,1.947,1.9464,1.9437,1.9433,1.9428,1.9395,1.9391,1.9377,1.9358,1.9359,1.9358,1.9348,1.9367,1.9357,1.936,1.9359,1.9358,1.9362,1.9366,1.9317,1.9316,1.9316,0,0,1.9556,1.9542,1.9544,1.953,1.951,1.9492,1.9492,1.9466,1.9455,1.9451,1.9426,1.942,1.9406,1.9392,1.9383,1.9409,1.939,1.9407,1.9428,1.9428,1.9432,1.9435,1.9442,1.9445,1.9408,1.9408,1.9408,0,1.9582,1.9573,1.9547,1.9544,1.9535,1.9505,1.9506,1.9495,1.9472,1.9467,1.9456,1.9435,1.9421,1.9417,1.9423,1.9418,1.9416,1.9409,1.9434,1.9436,1.9438,1.9445,1.9448,1.941,1.941,1.941,1.941,0,1.9605,1.9599,1.9603,1.9581,1.9573,1.9572,1.9546,1.9541,1.9524,1.9507,1.9502,1.9483,1.9468,1.9466,1.9451,1.946,1.9454,1.9439,1.9419,1.9445,1.945,1.9453,1.9413,1.9413,1.9412,1.9411,0,0,1.9661,1.9624,1.9626,1.9615,1.959,1.9584,1.9582,1.9566,1.9561,1.9547,1.9543,1.9531,1.9516,1.9506,1.9489,1.9489,1.9508,1.9473,1.9472,1.9478,1.9515,1.9525,1.9528,1.9496,1.9496,1.9496,1.9515,0,1.9686,1.9679,1.9656,1.9655,1.9648,1.962,1.9617,1.9601,1.9585,1.9577,1.9559,1.955,1.9532,1.9526,1.9525,1.9506,1.9514,1.9504,1.949,1.949,1.9494,1.9531,1.9542,1.9561,1.9518,1.9518,1.9518,0,1.9715,1.9701,1.97,1.9674,1.967,1.9668,1.9651,1.9644,1.9625,1.9613,1.9601,1.9581,1.9576,1.9559,1.955,1.9544,1.9537,1.9527,1.9527,1.9523,1.9504,1.9526,1.9566,1.9569,1.9522,1.9521,1.9521,0,1.9752,1.9734,1.973,1.9722,1.9692,1.9691,1.9678,1.9658,1.965,1.9636,1.963,1.9616,1.9607,1.9596,1.9572,1.9563,1.9565,1.9547,1.9554,1.9555,1.9554,1.9554,1.9592,1.9554,1.9554,1.9554,1.9554,0,1.9782,1.9781,1.9746,1.9744,1.9742,1.9716,1.9715,1.97,1.9682,1.9676,1.9651,1.9646,1.9616,1.9606,1.9588,1.9582,1.9579,1.9569,1.9563,1.957,1.9571,1.9563,1.956,1.9554,1.9554,1.9554,1.9554,0,1.9822,1.9799,1.9793,1.9765,1.9758,1.9758,1.9733,1.9729,1.9712,1.9704,1.97,1.9673,1.9661,1.9636,1.9618,1.9605,1.9603,1.9595,1.9609,1.9605,1.9613,1.9612,1.9645,1.9648,1.961,1.961,1.9611,0,1.9841,1.984,1.9812,1.9806,1.9794,1.9785,1.9776,1.975,1.9742,1.9719,1.9718,1.9704,1.969,1.9672,1.965,1.9635,1.9625,1.9638,1.9623,1.9628,1.9623,1.9622,1.9621,1.9641,1.9641,1.9642,1.9642,0,1.9877,1.9865,1.9854,1.9838,1.9828,1.9815,1.98,1.9796,1.9766,1.9758,1.9745,1.9735,1.9715,1.9701,1.9683,1.9669,1.965,1.9648,1.9648,1.9653,1.966,1.9654,1.9616,1.9646,1.9646,1.9646,1.9645,1.9645,1.9906,1.9903,1.9882,1.9869,1.9855,1.9842,1.9836,1.9818,1.9807,1.9788,1.9774,1.9762,1.9741,1.9715,1.9702,1.9692,1.9683,1.9684,1.9684,1.9684,1.9686,1.9664,1.9689,1.9689,1.9689,1.9688,1.9688,0,1.9938,1.9923,1.9912,1.9891,1.9881,1.9865,1.9848,1.984,1.983,1.9813,1.98,1.9785,1.977,1.9747,1.9731,1.9727,1.9717,1.9723,1.9722,1.9719,1.9696,1.9696,1.9731,1.9731,1.9731,1.9731,1.9731,1.9731,1.9953,1.9947,1.9933,1.9919,1.9904,1.9891,1.9883,1.987,1.9856,1.9839,1.9827,1.9812,1.9792,1.9774,1.976,1.9753,1.9747,1.9755,1.9746,1.9725,1.9721,1.9717,1.9717,1.9755,1.9755,1.9769,1.9769,1.977]}]]